| time (UTC) | temp F | wind direction | speed knots | gust knots | rain 1hr in | rain 24hr in | rain mn in | humidity % | barometer mb |
| 20260502183111 | 47 | 292 | 1.7 | 5.2 | 0.00 | 0.25 | 0.25 | 64 | 1016.9 |
| 20260502182541 | 47 | 285 | 2.6 | 7.0 | 0.00 | 0.25 | 0.25 | 64 | 1016.9 |
| 20260502182040 | 47 | 273 | 3.5 | 9.6 | 0.00 | 0.25 | 0.25 | 65 | 1017.0 |
| 20260502181513 | 47 | 14 | 3.5 | 9.6 | 0.00 | 0.25 | 0.25 | 60 | 1017.0 |
| 20260502180946 | 47 | 309 | 2.6 | 7.0 | 0.00 | 0.25 | 0.25 | 63 | 1017.0 |
| 20260502180444 | 48 | 306 | 2.6 | 7.0 | 0.00 | 0.25 | 0.25 | 62 | 1017.1 |
| 20260502170119 | 45 | 86 | 2.6 | 4.3 | 0.00 | 0.25 | 0.25 | 65 | 1017.3 |
| 20260502164041 | 46 | 96 | 2.6 | 8.7 | 0.00 | 0.25 | 0.25 | 66 | 1017.5 |
| 20260502163513 | 45 | 34 | 1.7 | 8.7 | 0.00 | 0.25 | 0.25 | 64 | 1017.5 |
| 20260502163015 | 45 | 32 | 2.6 | 7.8 | 0.00 | 0.25 | 0.25 | 66 | 1017.5 |
| 20260502162449 | 45 | 53 | 2.6 | 7.0 | 0.00 | 0.25 | 0.25 | 70 | 1017.5 |
| 20260502161915 | 45 | 88 | 2.6 | 7.0 | 0.00 | 0.25 | 0.25 | 70 | 1017.6 |
| 20260502161348 | 44 | 97 | 2.6 | 7.0 | 0.00 | 0.26 | 0.25 | 72 | 1017.6 |
| 20260502160845 | 44 | 51 | 3.5 | 7.8 | 0.00 | 0.26 | 0.25 | 71 | 1017.6 |
| 20260502160622 | 44 | 80 | 3.5 | 7.8 | 0.00 | 0.26 | 0.25 | 72 | 1017.6 |
| 20260502152119 | 42 | 99 | 4.3 | 7.8 | 0.00 | 0.27 | 0.25 | 73 | 1017.5 |
| 20260502151615 | 43 | 90 | 4.3 | 7.8 | 0.00 | 0.27 | 0.25 | 74 | 1017.4 |
| 20260502151112 | 43 | 84 | 3.5 | 7.8 | 0.00 | 0.28 | 0.25 | 75 | 1017.3 |
| 20260502150546 | 43 | 68 | 3.5 | 8.7 | 0.00 | 0.28 | 0.25 | 75 | 1017.3 |
| 20260502130505 | 41 | 29 | 4.3 | 10.4 | 0.00 | 0.34 | 0.25 | 83 | 1016.7 |
| 20260502123427 | 40 | 70 | 3.5 | 8.7 | 0.00 | 0.36 | 0.25 | 82 | 1016.9 |
| 20260502122928 | 40 | 59 | 2.6 | 6.1 | 0.00 | 0.36 | 0.25 | 82 | 1016.9 |
| 20260502122426 | 40 | 88 | 2.6 | 7.8 | 0.00 | 0.36 | 0.25 | 82 | 1016.8 |
| 20260502121928 | 40 | 100 | 2.6 | 7.8 | 0.00 | 0.36 | 0.25 | 82 | 1016.9 |
| 20260502121407 | 40 | 355 | 2.6 | 7.8 | 0.00 | 0.36 | 0.25 | 82 | 1016.9 |
| 20260502120904 | 40 | 34 | 2.6 | 7.8 | 0.00 | 0.36 | 0.25 | 82 | 1016.8 |
| 20260502120403 | 40 | 42 | 2.6 | 7.8 | 0.00 | 0.36 | 0.25 | 82 | 1016.8 |
| 20260502115903 | 40 | 323 | 2.6 | 7.8 | 0.00 | 0.36 | 0.25 | 82 | 1016.8 |
| 20260502115404 | 39 | 71 | 2.6 | 8.7 | 0.00 | 0.37 | 0.25 | 83 | 1016.7 |
| 20260502114843 | 39 | 5 | 3.5 | 8.7 | 0.00 | 0.37 | 0.25 | 83 | 1016.6 |
| 20260502114345 | 39 | 40 | 3.5 | 8.7 | 0.00 | 0.38 | 0.25 | 82 | 1016.6 |
| 20260502113844 | 39 | 16 | 3.5 | 8.7 | 0.00 | 0.39 | 0.25 | 83 | 1016.6 |
| 20260502113322 | 39 | 15 | 3.5 | 9.6 | 0.00 | 0.40 | 0.25 | 83 | 1016.6 |
| 20260502112824 | 39 | 68 | 3.5 | 9.6 | 0.00 | 0.41 | 0.25 | 83 | 1016.5 |
| 20260502112301 | 39 | 348 | 3.5 | 9.6 | 0.00 | 0.43 | 0.25 | 84 | 1016.4 |
| 20260502111744 | 39 | 93 | 3.5 | 9.6 | 0.00 | 0.45 | 0.25 | 84 | 1016.4 |
| 20260502111220 | 39 | 48 | 2.6 | 7.0 | 0.00 | 0.46 | 0.25 | 84 | 1016.3 |
| 20260502110651 | 39 | 72 | 2.6 | 7.0 | 0.00 | 0.48 | 0.25 | 84 | 1016.1 |
| 20260502110130 | 39 | 54 | 2.6 | 7.8 | 0.00 | 0.48 | 0.25 | 84 | 1016.0 |
| 20260502105622 | 39 | 49 | 2.6 | 7.8 | 0.01 | 0.49 | 0.25 | 85 | 1016.0 |
| 20260502105120 | 39 | 66 | 2.6 | 7.8 | 0.01 | 0.49 | 0.25 | 84 | 1015.9 |
| 20260502104552 | 39 | 121 | 3.5 | 8.7 | 0.01 | 0.50 | 0.25 | 85 | 1016.0 |
| 20260502104052 | 39 | 334 | 3.5 | 8.7 | 0.01 | 0.50 | 0.25 | 85 | 1016.0 |
| 20260502103522 | 39 | 355 | 3.5 | 7.8 | 0.01 | 0.52 | 0.25 | 85 | 1015.9 |
| 20260502102958 | 39 | 45 | 2.6 | 8.7 | 0.01 | 0.53 | 0.25 | 85 | 1015.9 |
| 20260502102431 | 39 | 55 | 2.6 | 8.7 | 0.01 | 0.54 | 0.25 | 85 | 1015.9 |
| 20260502101902 | 39 | 52 | 4.3 | 10.4 | 0.01 | 0.55 | 0.25 | 85 | 1016.0 |
| 20260502101341 | 39 | 70 | 3.5 | 10.4 | 0.01 | 0.56 | 0.25 | 85 | 1015.7 |
| 20260502100813 | 39 | 38 | 3.5 | 9.6 | 0.01 | 0.57 | 0.25 | 86 | 1015.8 |
| 20260502100251 | 39 | 121 | 4.3 | 11.3 | 0.01 | 0.57 | 0.25 | 86 | 1015.7 |
| 20260502091039 | 39 | 105 | 5.2 | 10.4 | 0.09 | 0.63 | 0.24 | 87 | 1015.4 |
| 20260502090536 | 39 | 91 | 7.0 | 12.2 | 0.11 | 0.64 | 0.24 | 88 | 1015.3 |
| 20260502071134 | 41 | 211 | 1.7 | 6.1 | 0.00 | 0.46 | 0.00 | 84 | 1014.9 |
| 20260502070630 | 42 | 191 | 1.7 | 6.1 | 0.00 | 0.46 | 0.00 | 83 | 1014.8 |
| 20260502070127 | 43 | 204 | 1.7 | 7.0 | 0.00 | 0.46 | 0.00 | 83 | 1014.9 |
| 20260502065603 | 43 | 205 | 0.9 | 7.0 | 0.00 | 0.46 | 0.00 | 83 | 1014.9 |
| 20260502065035 | 43 | 61 | 0.9 | 5.2 | 0.00 | 0.46 | 0.00 | 82 | 1014.9 |
| 20260502064532 | 43 | 56 | 1.7 | 5.2 | 0.00 | 0.46 | 0.00 | 81 | 1014.9 |
| 20260502064031 | 43 | 56 | 1.7 | 7.0 | 0.00 | 0.46 | 0.00 | 82 | 1014.9 |
| 20260502063528 | 43 | 14 | 2.6 | 7.0 | 0.00 | 0.46 | 0.00 | 82 | 1014.8 |
| 20260502063013 | 43 | 42 | 2.6 | 6.1 | 0.00 | 0.46 | 0.00 | 82 | 1014.8 |
| 20260502062515 | 43 | 82 | 3.5 | 7.0 | 0.00 | 0.46 | 0.00 | 82 | 1014.9 |
| 20260502061951 | 43 | 87 | 3.5 | 7.0 | 0.00 | 0.46 | 0.00 | 82 | 1015.0 |
| 20260502061423 | 43 | 86 | 3.5 | 7.0 | 0.00 | 0.46 | 0.00 | 83 | 1015.0 |
| 20260502060918 | 43 | 56 | 3.5 | 7.0 | 0.00 | 0.46 | 0.00 | 83 | 1015.0 |
| 20260502060355 | 43 | 91 | 4.3 | 7.0 | 0.00 | 0.46 | 0.00 | 83 | 1015.1 |
| 20260502055828 | 43 | 79 | 3.5 | 7.0 | 0.00 | 0.46 | 0.00 | 83 | 1015.1 |
| 20260502055301 | 43 | 86 | 3.5 | 6.1 | 0.00 | 0.46 | 0.00 | 83 | 1015.3 |
| 20260502054758 | 43 | 98 | 3.5 | 8.7 | 0.00 | 0.46 | 0.00 | 83 | 1015.3 |
| 20260502054300 | 43 | 84 | 3.5 | 8.7 | 0.00 | 0.46 | 0.00 | 83 | 1015.3 |
| 20260502053753 | 43 | 90 | 3.5 | 8.7 | 0.00 | 0.46 | 0.00 | 83 | 1015.4 |
| 20260502053228 | 43 | 87 | 4.3 | 8.7 | 0.00 | 0.46 | 0.00 | 84 | 1015.3 |
| 20260502052658 | 43 | 84 | 4.3 | 8.7 | 0.00 | 0.46 | 0.00 | 84 | 1015.3 |
| 20260502052155 | 43 | 51 | 4.3 | 8.7 | 0.00 | 0.46 | 0.00 | 84 | 1015.4 |
| 20260502051629 | 43 | 96 | 4.3 | 9.6 | 0.00 | 0.46 | 0.00 | 84 | 1015.5 |
| 20260502051104 | 43 | 97 | 5.2 | 9.6 | 0.00 | 0.46 | 0.00 | 85 | 1015.4 |
| 20260502050537 | 43 | 85 | 7.0 | 11.3 | 0.00 | 0.46 | 0.00 | 85 | 1015.4 |
| 20260502050035 | 43 | 88 | 7.8 | 11.3 | 0.00 | 0.46 | 0.00 | 85 | 1015.4 |
| 20260502045509 | 43 | 87 | 7.8 | 10.4 | 0.00 | 0.46 | 0.00 | 86 | 1015.3 |
| 20260502044940 | 43 | 85 | 7.0 | 10.4 | 0.00 | 0.46 | 0.00 | 86 | 1015.2 |
| 20260502044438 | 42 | 88 | 7.0 | 9.6 | 0.00 | 0.46 | 0.00 | 86 | 1015.4 |
| 20260502043912 | 42 | 87 | 7.0 | 10.4 | 0.00 | 0.46 | 0.00 | 86 | 1015.5 |
| 20260502043408 | 42 | 96 | 7.0 | 10.4 | 0.00 | 0.46 | 0.00 | 86 | 1015.5 |
| 20260502042843 | 42 | 84 | 7.0 | 9.6 | 0.00 | 0.46 | 0.00 | 86 | 1015.8 |
| 20260502042343 | 42 | 94 | 7.8 | 10.4 | 0.00 | 0.46 | 0.00 | 87 | 1015.8 |
| 20260502041839 | 42 | 101 | 8.7 | 12.2 | 0.00 | 0.46 | 0.00 | 87 | 1015.7 |
| 20260502041321 | 42 | 90 | 8.7 | 12.2 | 0.00 | 0.46 | 0.00 | 87 | 1015.7 |
| 20260502040822 | 42 | 69 | 9.6 | 13.9 | 0.00 | 0.46 | 0.00 | 88 | 1015.7 |
| 20260502040255 | 42 | 77 | 9.6 | 13.9 | 0.00 | 0.46 | 0.00 | 88 | 1015.5 |
| 20260502035752 | 42 | 72 | 8.7 | 13.0 | 0.00 | 0.46 | 0.46 | 89 | 1015.4 |
| 20260502035224 | 42 | 88 | 7.0 | 12.2 | 0.00 | 0.46 | 0.46 | 89 | 1015.5 |
| 20260502034723 | 41 | 71 | 6.1 | 13.0 | 0.00 | 0.46 | 0.46 | 89 | 1015.5 |
| 20260502034219 | 41 | 85 | 6.1 | 13.0 | 0.00 | 0.46 | 0.46 | 89 | 1015.4 |
| 20260502033715 | 41 | 61 | 6.1 | 12.2 | 0.00 | 0.46 | 0.46 | 88 | 1015.5 |
| 20260502033201 | 41 | 102 | 6.1 | 13.0 | 0.00 | 0.46 | 0.46 | 88 | 1015.5 |
| 20260502032658 | 41 | 46 | 7.0 | 13.0 | 0.00 | 0.46 | 0.46 | 87 | 1015.4 |
| 20260502032133 | 41 | 76 | 6.1 | 13.9 | 0.00 | 0.46 | 0.46 | 88 | 1015.3 |
| 20260502031632 | 42 | 24 | 6.1 | 13.9 | 0.00 | 0.46 | 0.46 | 87 | 1015.3 |
| 20260502031128 | 42 | 18 | 4.3 | 12.2 | 0.00 | 0.46 | 0.46 | 87 | 1015.2 |
| 20260502030620 | 43 | 9 | 1.7 | 8.7 | 0.00 | 0.46 | 0.46 | 87 | 1015.2 |
| 20260502030116 | 43 | 46 | 0.0 | 7.8 | 0.00 | 0.46 | 0.46 | 88 | 1015.2 |
| 20260502025551 | 43 | 26 | 0.0 | 0.0 | 0.00 | 0.46 | 0.46 | 87 | 1015.0 |
| 20260502025032 | 42 | 26 | 0.0 | 0.0 | 0.00 | 0.46 | 0.46 | 87 | 1015.1 |
| 20260502024528 | 42 | 26 | 0.0 | 0.0 | 0.00 | 0.46 | 0.46 | 87 | 1015.0 |
| 20260502024028 | 42 | 26 | 0.0 | 0.0 | 0.00 | 0.46 | 0.46 | 87 | 1015.0 |
| 20260502023530 | 42 | 26 | 0.0 | 0.0 | 0.00 | 0.46 | 0.46 | 87 | 1015.0 |
| 20260502023002 | 42 | 26 | 0.0 | 0.0 | 0.00 | 0.46 | 0.46 | 87 | 1015.1 |
| 20260502022501 | 42 | 26 | 0.0 | 0.0 | 0.00 | 0.46 | 0.46 | 87 | 1015.1 |
| 20260502021933 | 43 | 26 | 0.0 | 0.0 | 0.00 | 0.46 | 0.46 | 87 | 1015.1 |
| 20260502021406 | 42 | 26 | 0.0 | 0.0 | 0.00 | 0.46 | 0.46 | 87 | 1015.1 |
| 20260502020904 | 42 | 26 | 0.0 | 0.0 | 0.00 | 0.46 | 0.46 | 87 | 1015.2 |
| 20260502020357 | 42 | 26 | 0.0 | 0.0 | 0.00 | 0.46 | 0.46 | 87 | 1015.1 |
| 20260502015854 | 42 | 26 | 0.0 | 0.0 | 0.00 | 0.46 | 0.46 | 87 | 1015.1 |
| 20260502015351 | 42 | 26 | 0.0 | 0.0 | 0.00 | 0.46 | 0.46 | 87 | 1015.0 |
| 20260502014857 | 42 | 26 | 0.0 | 0.9 | 0.00 | 0.46 | 0.46 | 87 | 1014.8 |
| 20260502014344 | 42 | 26 | 0.0 | 1.7 | 0.00 | 0.46 | 0.46 | 86 | 1014.7 |
| 20260502013846 | 42 | 26 | 0.9 | 3.5 | 0.00 | 0.46 | 0.46 | 86 | 1014.7 |
| 20260502013314 | 42 | 26 | 0.9 | 3.5 | 0.00 | 0.46 | 0.46 | 86 | 1014.7 |
| 20260502012810 | 42 | 355 | 0.9 | 3.5 | 0.00 | 0.46 | 0.46 | 86 | 1014.7 |
| 20260502012308 | 42 | 5 | 1.7 | 10.4 | 0.00 | 0.46 | 0.46 | 86 | 1014.7 |
| 20260502011805 | 42 | 315 | 2.6 | 10.4 | 0.00 | 0.46 | 0.46 | 86 | 1014.7 |
| 20260502011250 | 42 | 309 | 4.3 | 12.2 | 0.00 | 0.46 | 0.46 | 86 | 1014.6 |
| 20260502010744 | 43 | 24 | 3.5 | 12.2 | 0.00 | 0.46 | 0.46 | 85 | 1014.7 |
| 20260502010241 | 43 | 316 | 4.3 | 11.3 | 0.00 | 0.46 | 0.46 | 85 | 1014.6 |
| 20260502005714 | 44 | 287 | 5.2 | 11.3 | 0.00 | 0.46 | 0.46 | 83 | 1014.6 |
| 20260502005215 | 45 | 315 | 4.3 | 10.4 | 0.00 | 0.46 | 0.46 | 80 | 1014.5 |
| 20260502004709 | 46 | 314 | 3.5 | 8.7 | 0.00 | 0.46 | 0.46 | 77 | 1014.5 |
| 20260502004205 | 46 | 261 | 1.7 | 7.8 | 0.00 | 0.46 | 0.46 | 79 | 1014.3 |
| 20260502003702 | 47 | 251 | 0.9 | 3.5 | 0.00 | 0.46 | 0.46 | 80 | 1014.2 |
| 20260502003159 | 47 | 224 | 0.9 | 3.5 | 0.00 | 0.46 | 0.46 | 79 | 1014.1 |
| 20260502002633 | 47 | 224 | 1.7 | 3.5 | 0.00 | 0.46 | 0.46 | 79 | 1014.1 |
| 20260502002129 | 47 | 271 | 1.7 | 3.5 | 0.00 | 0.46 | 0.46 | 78 | 1014.0 |
| 20260502001602 | 47 | 242 | 0.9 | 3.5 | 0.00 | 0.46 | 0.46 | 77 | 1014.0 |
| 20260502001102 | 47 | 265 | 0.0 | 0.0 | 0.00 | 0.46 | 0.46 | 76 | 1014.0 |
| 20260502000537 | 47 | 265 | 0.0 | 0.0 | 0.00 | 0.46 | 0.46 | 76 | 1013.9 |
| 20260502000038 | 47 | 265 | 0.0 | 0.0 | 0.00 | 0.46 | 0.46 | 76 | 1013.9 |
| 20260501235534 | 47 | 265 | 0.0 | 0.0 | 0.00 | 0.46 | 0.46 | 76 | 1013.9 |
| 20260501235035 | 47 | 265 | 0.0 | 0.0 | 0.00 | 0.46 | 0.46 | 75 | 1013.9 |
| 20260501234525 | 47 | 265 | 0.0 | 0.0 | 0.00 | 0.46 | 0.46 | 75 | 1013.9 |
| 20260501234004 | 47 | 265 | 0.0 | 0.0 | 0.00 | 0.46 | 0.46 | 75 | 1013.9 |
| 20260501233459 | 47 | 265 | 0.0 | 0.0 | 0.00 | 0.46 | 0.46 | 75 | 1013.9 |
| 20260501232957 | 47 | 265 | 0.0 | 0.0 | 0.00 | 0.46 | 0.46 | 74 | 1013.8 |
| 20260501232435 | 47 | 265 | 0.0 | 1.7 | 0.00 | 0.46 | 0.46 | 74 | 1013.9 |
| 20260501231913 | 47 | 265 | 0.0 | 1.7 | 0.00 | 0.46 | 0.46 | 73 | 1013.8 |
| 20260501231412 | 47 | 265 | 0.9 | 3.5 | 0.00 | 0.46 | 0.46 | 74 | 1013.8 |
| 20260501230847 | 47 | 265 | 0.9 | 3.5 | 0.00 | 0.46 | 0.46 | 74 | 1013.7 |
| 20260501230350 | 48 | 265 | 0.9 | 3.5 | 0.00 | 0.46 | 0.46 | 74 | 1013.8 |
| 20260501225846 | 48 | 279 | 0.0 | 1.7 | 0.00 | 0.46 | 0.46 | 74 | 1013.8 |
| 20260501225345 | 48 | 11 | 0.0 | 1.7 | 0.00 | 0.46 | 0.46 | 74 | 1013.8 |
| 20260501224825 | 48 | 13 | 0.9 | 1.7 | 0.00 | 0.46 | 0.46 | 73 | 1013.9 |
| 20260501224324 | 48 | 13 | 0.0 | 1.7 | 0.00 | 0.46 | 0.46 | 74 | 1013.9 |
| 20260501223808 | 48 | 21 | 0.0 | 1.7 | 0.00 | 0.46 | 0.46 | 75 | 1013.9 |
| 20260501223252 | 48 | 20 | 0.9 | 2.6 | 0.00 | 0.46 | 0.46 | 76 | 1013.9 |
| 20260501222748 | 48 | 20 | 1.7 | 4.3 | 0.00 | 0.46 | 0.46 | 76 | 1014.0 |
| 20260501222246 | 48 | 53 | 0.9 | 4.3 | 0.00 | 0.46 | 0.46 | 74 | 1013.9 |
| 20260501221745 | 48 | 101 | 1.7 | 3.5 | 0.00 | 0.46 | 0.46 | 77 | 1013.9 |
| 20260501221235 | 48 | 101 | 1.7 | 3.5 | 0.00 | 0.46 | 0.46 | 76 | 1013.9 |
| 20260501220732 | 49 | 101 | 0.9 | 3.5 | 0.00 | 0.46 | 0.46 | 76 | 1013.9 |
| 20260501220235 | 49 | 101 | 0.0 | 0.0 | 0.00 | 0.46 | 0.46 | 76 | 1013.9 |
| 20260501215713 | 49 | 101 | 0.0 | 0.0 | 0.00 | 0.46 | 0.46 | 77 | 1013.8 |
| 20260501215147 | 49 | 101 | 0.0 | 0.9 | 0.00 | 0.46 | 0.46 | 77 | 1013.8 |
| 20260501214643 | 49 | 101 | 0.0 | 0.9 | 0.00 | 0.46 | 0.46 | 78 | 1013.8 |
| 20260501214125 | 48 | 101 | 0.0 | 0.0 | 0.00 | 0.46 | 0.46 | 77 | 1013.8 |
| 20260501213625 | 48 | 101 | 0.0 | 0.0 | 0.00 | 0.46 | 0.46 | 77 | 1013.7 |
| 20260501213102 | 48 | 93 | 0.0 | 0.0 | 0.00 | 0.46 | 0.46 | 79 | 1013.7 |
| 20260501212559 | 48 | 93 | 0.0 | 0.0 | 0.00 | 0.46 | 0.46 | 79 | 1013.6 |
| 20260501212030 | 48 | 93 | 0.0 | 0.0 | 0.00 | 0.46 | 0.46 | 79 | 1013.7 |
| 20260501211517 | 48 | 93 | 0.0 | 0.9 | 0.00 | 0.46 | 0.46 | 79 | 1013.7 |
| 20260501211009 | 48 | 93 | 0.0 | 1.7 | 0.00 | 0.46 | 0.46 | 79 | 1013.6 |
| 20260501210507 | 48 | 93 | 0.0 | 1.7 | 0.00 | 0.46 | 0.46 | 79 | 1013.5 |
| 20260501205943 | 48 | 93 | 0.9 | 1.7 | 0.00 | 0.46 | 0.46 | 79 | 1013.5 |
| 20260501205417 | 48 | 93 | 0.9 | 3.5 | 0.00 | 0.46 | 0.46 | 79 | 1013.4 |
| 20260501204847 | 48 | 93 | 0.9 | 2.6 | 0.00 | 0.46 | 0.46 | 79 | 1013.3 |
| 20260501204346 | 48 | 94 | 0.9 | 1.7 | 0.00 | 0.46 | 0.46 | 80 | 1013.2 |
| 20260501203846 | 48 | 94 | 0.0 | 1.7 | 0.00 | 0.46 | 0.46 | 80 | 1013.2 |
| 20260501203340 | 48 | 94 | 0.9 | 2.6 | 0.00 | 0.46 | 0.46 | 80 | 1013.2 |
| 20260501202837 | 48 | 91 | 0.9 | 2.6 | 0.00 | 0.46 | 0.46 | 81 | 1013.2 |
| 20260501202335 | 47 | 91 | 0.0 | 0.0 | 0.00 | 0.46 | 0.46 | 81 | 1013.2 |
| 20260501201822 | 47 | 91 | 0.0 | 0.0 | 0.00 | 0.46 | 0.46 | 82 | 1013.1 |
| 20260501201256 | 47 | 91 | 0.0 | 0.0 | 0.00 | 0.46 | 0.46 | 83 | 1013.0 |
| 20260501200731 | 47 | 91 | 0.0 | 0.0 | 0.00 | 0.46 | 0.46 | 84 | 1013.0 |
| 20260501200220 | 46 | 91 | 0.0 | 2.6 | 0.00 | 0.46 | 0.46 | 84 | 1013.0 |
| 20260501195721 | 46 | 91 | 0.9 | 1.7 | 0.00 | 0.46 | 0.46 | 85 | 1013.0 |
| 20260501195203 | 46 | 91 | 1.7 | 5.2 | 0.00 | 0.46 | 0.46 | 84 | 1013.2 |
| 20260501194703 | 46 | 91 | 2.6 | 5.2 | 0.00 | 0.46 | 0.46 | 84 | 1013.2 |
| 20260501194202 | 46 | 93 | 2.6 | 5.2 | 0.00 | 0.46 | 0.46 | 84 | 1013.3 |
| 20260501193705 | 46 | 84 | 3.5 | 7.8 | 0.00 | 0.46 | 0.46 | 83 | 1013.2 |
| 20260501193204 | 46 | 87 | 3.5 | 7.8 | 0.00 | 0.46 | 0.46 | 83 | 1013.2 |
| 20260501192638 | 46 | 93 | 3.5 | 6.1 | 0.00 | 0.46 | 0.46 | 82 | 1013.3 |
| 20260501192133 | 46 | 50 | 2.6 | 7.0 | 0.00 | 0.46 | 0.46 | 82 | 1013.2 |
| 20260501191629 | 46 | 71 | 2.6 | 7.0 | 0.00 | 0.46 | 0.46 | 83 | 1013.3 |
| 20260501191127 | 46 | 66 | 3.5 | 6.1 | 0.00 | 0.46 | 0.46 | 83 | 1013.2 |
| 20260501190559 | 46 | 58 | 3.5 | 7.0 | 0.00 | 0.46 | 0.46 | 84 | 1013.1 |
| 20260501190101 | 46 | 88 | 3.5 | 7.8 | 0.00 | 0.46 | 0.46 | 83 | 1013.1 |
| 20260501185529 | 45 | 108 | 3.5 | 8.7 | 0.00 | 0.46 | 0.46 | 84 | 1013.1 |
| 20260501185026 | 45 | 82 | 4.3 | 8.7 | 0.00 | 0.46 | 0.46 | 85 | 1013.0 |
| 20260501184505 | 45 | 79 | 4.3 | 8.7 | 0.00 | 0.46 | 0.46 | 85 | 1013.0 |
| 20260501183933 | 45 | 80 | 3.5 | 8.7 | 0.00 | 0.46 | 0.46 | 86 | 1012.9 |